Showing default

LKW-1, 43034

Orbit data source: Space-Track

LKW-1, 43034 is a Chinese payload satellite in SSO that was launched on Sun, 03 Dec 2017 UTC via a CHANG ZHENG 2D launch vehicle from the Jiuquan Satellite Launch Center, China (JSC). Payload-class satellites include a variety of spacecraft equipped with specific instruments for various scientific and technological missions. These include communications satellites like Starlink; space stations such as the ISS; scientific satellites like the Hubble; Earth observation satellites from companies like Planet Labs, Umbra, and HawkEye 360; GPS; miniature CubeSats for education and research; and military/defense satellites.

Loading next visibility...
Identifier
43034, 2017-077A
Orbit
SSO
Country
Flag of CNCN / PRC
Related business
Manufacturer
CAST?
Mission
Operational Defense Imaging
Bus & Motor
LKW, Unknown motor
Mass
~2,000 kg wet, ~2,000 kg dry
Launch date (UTC)
2017-12-03 (9 years ago)
Launch vehicle
CHANG ZHENG 2D
Launch site
Jiuquan Satellite Launch Center, China (JSC)
Object type
Payload
Rocket body
Debris
Shape & HBR
Hex Cyl + 3 Pan, 5.0 m
Radar Cross Section
8.135 m², Large (>1 m²)

Expand to show TLE details & history
Last TLE update: 5 hours ago

TLE from 5 hours ago
0 LKW-1
1 43034U 17077A   26256.85384610  .00004023  00000-0  16540-3 0  9990
2 43034  97.0933 286.4082 0001742 107.4436 252.6993 15.24697999488205
Epoch: 2026-09-13T20:29Z
TLE epoch observation values (Epoch: 2026-09-13T20:29:32.303Z)
Latitude
-0°
Longitude
-13.81893°
Altitude
495.154 km
Speed
7.617 km/s
True Right ascension
19h 05m 37s
True Declination
0° 00' 00"
Sunlit
Object was in full shadow at epoch
Visualization orbit readout
Latitude
Unknown
Longitude
Unknown
Altitude
Unknown
Speed
Unknown
Apparent Right ascension
Unknown
Apparent Declination
Unknown
Sunlit
N/A
Visualization observer readout
Local Sidereal Time
17:55:47
Azimuth
Unknown
Elevation
Unknown
Doppler factor
Unknown
Orbital elements
Apogee altitude
489.835 km
Perigee altitude
487.443 km
Semi-major axis
6,866.776 km
Eccentricity
0.00017
Inclination
97.0933°
RAAN
286.4082°
Arg. of periapsis
107.4436°
True anomaly
252.68024°
Mean anomaly
252.6993°
Eccentric anomaly
252.68977°
Mean motion
3.81429 °/min
Orbital period
94.38 mins
BSTAR
0.0001654
Loading maneuver chart data...
Computing Atmospheric mass density...
Loading historical data...
Loading historical data...
Loading historical data...
Loading historical data...
Loading historical data...
Loading historical data...
Loading historical data...

Documentation

Showing up to 5 results
|